Home > Time Zones > World Clock > Weather > India > Surat > Past weeks

Flag for India Weather past 2 weeks in Surat, Gujarat, India

Now
100 °F

Clear.


Feels Like: 102 °F
Forecast: 78 / 93 °F
Wind: 7 mph from Southwest

Location: Ahmadabad Airport


UV Index: 10 (Very high)

Visibility: 4 mi


Pressure: 29.74 "Hg

Humidity: 29%

Dew point: 63 °F

Location of SuratLocation

Historic Weather in Surat

°F

Surat temperature yesterday

Maximum temperature yesterday: 104 °F (at 3:40 PM)
Minimum temperature yesterday: 81 °F (at 6:40 AM)
Average temperature yesterday: 91 °F

Past Weeks' High & Low Weather Summary

 TemperatureHumidityPressure
High108 °F (Apr 5, 4:40 PM)79% (Apr 18, 6:40 AM)29.92 "Hg (Apr 18, 6:40 AM)
Low70 °F (Apr 4, 6:40 AM)9% (Apr 9, 4:40 PM)29.65 "Hg (Apr 16, 4:40 PM)
Average89 °F34%29.79 "Hg
* Reported Apr 3 3:40 PM — Apr 18 3:40 PM, Surat, Weather by CustomWeather, © 2014

Note: Actual official high and low records may vary slightly from our data, if they occured in-between our weather recording intervals... More about our weather records

Advertising

Historic Weather Conditions — Data for Previous 24 hours

 ConditionsComfort  
Time TempWeatherWind HumidityBarometerVisibility
3:40 PM
Apr 18
100 °FClear.7 mph29%29.74 "Hg4 mi
2:40 PM99 °FClear.5 mph31%29.77 "Hg4 mi
1:40 PM97 °FClear.7 mph34%29.80 "Hg3 mi
12:40 PM95 °FClear.7 mph41%29.83 "Hg3 mi
11:40 AM91 °FHaze.7 mph49%29.86 "Hg3 mi
10:40 AM88 °FHaze.7 mph59%29.86 "Hg3 mi
9:40 AM86 °FHaze.7 mph62%29.89 "Hg3 mi
6:40 AM79 °FClear.6 mph79%29.83 "Hg2 mi
5:40 AM81 °FClear.7 mph74%29.80 "Hg2 mi
4:40 AM81 °FClear.8 mph74%29.77 "Hg2 mi
3:40 AM84 °FClear.8 mph62%29.77 "Hg2 mi
2:40 AM84 °FClear.6 mph58%29.77 "Hg2 mi
1:40 AM84 °FClear.7 mph66%29.77 "Hg2 mi
12:40 AM86 °FClear.7 mph59%29.77 "Hg2 mi
11:40 PM
Apr 17
88 °FClear.12 mph52%29.74 "Hg2 mi
9:40 PM90 °FClear.9 mph46%29.71 "Hg2 mi
8:40 PM93 °FClear.8 mph49%29.68 "Hg2 mi
7:40 PM97 °FClear.N/A39%29.65 "Hg2 mi
Weather by CustomWeather, © 2014

See weather overview